User: anonymous   Login
Location: Fort Wayne
(41.1310°N, 85.1290°W)
Time: 06:19:18
(UTC-04:00)
Language:

COSMOS 2406 - Orbit

View from above orbital plane
View from above orbital plane
View from above satellite
View from above satellite

Ground track
Ground track

The orbit data is extracted from the following two-line orbital elements,

1 28352U 04021A   14295.63764209  .00000401  00000-0  24728-3 0  4250
2 28352 071.0031 346.5577 0011809 127.2767 039.8364 14.11357060534184
Epoch (UTC): 22 October 2014 15:18:12
Eccentricity: 0.0011809
inclination: 71.0031°
perigee height: 846 km
apogee height: 863 km
right ascension of ascending node: 346.5577°
argument of perigee: 127.2767°
revolutions per day: 14.11357060
mean anomaly at epoch: 39.8364°
orbit number at epoch: 53418

The dashed part of the orbit path shows where the satellite is in the earth's shadow,  

DLR